Regional Weather Roundup
Issued by NWS Portland, ME

Current Version | Previous Version | Text Only | Print | Product List | Glossary Off
Versions: 1 2 3 4 5 6 7 8 9 10 11 12 13 14 15 16 17 18 19 20 21 22 23 24 25 26 27 28 29 30 31 32 33 34 35 36 37 38 39 40 41 42 43 44 45 46 47 48 49 50
000 ASUS41 KGYX 191805 RWRGYX WEATHER ROUNDUP FOR MAINE AND NEW HAMPSHIRE NATIONAL WEATHER SERVICE GRAY ME 200 PM EDT TUE JUN 19 2018 MEZ002-005-006-010-012-015-018-020-021-024-026-027-029-191900- MAINE CITY SKY/WX TMP DP RH WIND PRES REMARKS PORTLAND FAIR 76 47 35 NW21G29 29.74S 6HR MIN TEMP: 72; 6HR MAX TEMP: 76; SANFORD FAIR 78 47 33 NW12G21 29.75S BAR HARBOR FAIR 72 49 44 NW17G24 29.67R WISCASSET FAIR 75 47 36 VRB7G20 29.73R 6HR MIN TEMP: 70; 6HR MAX TEMP: 75; ROCKLAND FAIR 74 50 42 NW15G22 29.68F FRYEBURG FAIR 77 45 32 NW10G20 29.76F 6HR MIN TEMP: 68; 6HR MAX TEMP: 77; LEWISTONAUBURN FAIR 73 46 38 NW17G23 29.74F AUGUSTA FAIR 73 47 39 NW18G26 29.73S 6HR MIN TEMP: 68; 6HR MAX TEMP: 74; WATERVILLE FAIR 72 46 39 NW15G25 29.70R BANGOR FAIR 74 48 39 NW23G36 29.68S 6HR MIN TEMP: 66; 6HR MAX TEMP: 74; GREENVILLE N/A 65 46 50 NW24G36 29.71R 6HR MIN TEMP: 55; 6HR MAX TEMP: 65; MILLINOCKET FAIR 73 45 36 NW18G26 29.68R 6HR MIN TEMP: 62; 6HR MAX TEMP: 73; HOULTON PTSUNNY 68 47 46 NW16G25 29.62S 6HR MIN TEMP: 59; 6HR MAX TEMP: 69; PRESQUE ISLE PTSUNNY 66 46 48 N24G30 29.65R 6HR MIN TEMP: 58; 6HR MAX TEMP: 67; FRENCHVILLE CLOUDY 63 45 51 NW17G35 29.65R 6HR MIN TEMP: 55; 6HR MAX TEMP: 64; CARIBOU CLOUDY 64 46 52 NW10G28 29.64R 6HR MIN TEMP: 57; 6HR MAX TEMP: 66; $$ NHZ002-005-008-009-011-012-014-191900- NEW HAMPSHIRE CITY SKY/WX TMP DP RH WIND PRES REMARKS PORTSMOUTH MOSUNNY 81 50 33 NW14G24 29.73S ROCHESTER FAIR 78 53 41 NW18 29.74S 6HR MIN TEMP: 70; 6HR MAX TEMP: 78; NASHUA FAIR 78 53 41 NW13G28 29.78F MANCHESTER FAIR 81 47 30 NW18G24 29.77S 6HR MIN TEMP: 72; 6HR MAX TEMP: 81; CONCORD FAIR 77 51 40 NW14G25 29.79R 6HR MIN TEMP: 69; 6HR MAX TEMP: 78; LACONIA FAIR 73 48 41 N8G20 29.81S PLYMOUTH FAIR 71 50 47 NW15G22 29.82S BERLIN FAIR 70 48 45 NW9G22 29.81F 6HR MIN TEMP: 60; 6HR MAX TEMP: 70; WHITEFIELD FAIR 70 47 43 N13G24 29.84F 6HR MIN TEMP: 61; 6HR MAX TEMP: 71; JAFFREY FAIR 77 50 38 N9G22 29.83S 6HR MIN TEMP: 68; 6HR MAX TEMP: 77; KEENE FAIR 79 51 37 N15G21 29.81F LEBANON FAIR 74 49 41 N12G23 29.84S 6HR MIN TEMP: 66; 6HR MAX TEMP: 75; MT WASHINGTON FOG 39 39 100 NW61 N/A VSB 3/16 6HR MIN TEMP: 37; 6HR MAX TEMP: 40; $$ VTZ005-007-008-191900- VERMONT CITY SKY/WX TMP DP RH WIND PRES REMARKS ST JOHNSBURY N/A 69 47 45 MISG 29.83F MONTPELIER FAIR 67 52 58 NW9 29.91F BURLINGTON FAIR 71 50 47 N15G21 29.89F $$ MAZ007-012-024-CTZ003-RIZ002-NYZ038-NYZ072-191900- SOUTHERN NEW ENGLAND AND NY CITY SKY/WX TMP DP RH WIND PRES REMARKS BOSTON FAIR 81 51 35 NW17 29.75S WORCESTER FAIR 76 51 41 NW14G22 29.81S NANTUCKET FAIR 78 62 57 N15 29.74S PROVIDENCE FAIR 84 56 38 NW9G20 29.76R HARTFORD FAIR 83 53 35 N13 29.79S ALBANY FAIR 80 52 37 NW14G20 29.84S NEW YORK CITY PTSUNNY 86 58 38 N13 29.79F $$ ANZ081-ANZ082-ANZ150-NHZ014-MEZ023>029-191900- COASTAL MARINE OBSERVATIONS STATION/POSITION TIME TEMP WIND PRES WAVE AIR SEA DIR/SP/G HT/PER (UTC) (F) (DEG/KT/KT) (MB) (FT/S) MOUNT DESERT ROC 1800 61 280/ 15/ 16 1004.8R MATINICUS ROCK 1700 65 330/ 14/ 15 1005.0R ISLE OF SHOALS 1700 71 320/ 15/ 17 1006.5F JEFFREYS LEDGE 1736 58 N/A 2/ 6 $$ .............KEY.............. WCI - WIND CHILL TC - TEMPERATURE IN CELSIUS VSB - VISIBILITY IN MILES HX - HEAT INDEX FAIR- INDICATES FEW OR NO CLOUDS BELOW 12,000 FT, WITH NO SIGNIFICANT WEATHER AND/OR OBSTRUCTIONS TO VISIBILITY.

USA.gov is the U.S. government's official web portal to all federal, state and local government web resources and services.